STARLINK-32243, 60367

Orbit data source: Space-Track

STARLINK-32243, 60367 is a payload satellite owned by SpaceX/Seattle (US) in LEO that was launched on Sun, 04 Aug 2024 UTC via an FALCON 9 launch vehicle from the Air Force Western Test Range (AFWTR). Payload-class satellites include a variety of spacecraft equipped with specific instruments for various scientific and technological missions. These include communications satellites like Starlink; space stations such as the ISS; scientific satellites like the Hubble; Earth observation satellites from companies like Planet Labs, Umbra, and HawkEye 360; GPS; miniature CubeSats for education and research; and military/defense satellites.

Loading next visibility...
Identifier
60367, 2024-138N
Orbit
LEO
Country
Flag of USUS
Related business
Manufacturer
SpaceX/Seattle
Mission
Operational Commercial Communications
Bus & Motor
STARLINK V2M, Unknown motor
Mass
730 kg wet, ~700 kg dry
Launch date (UTC)
2024-08-04 (2 years ago)
Launch vehicle
FALCON 9
Launch site
Air Force Western Test Range (AFWTR)
Object type
Payload
Rocket body
Debris
Shape & HBR
Box + 2 Pan, 17.7 m
Radar Cross Section
33.884 m², Large (>1 m²)

Expand to show TLE details & history
Last TLE update: 17 hours ago

TLE from 17 hours ago
0 STARLINK-32243
1 60367U 24138N   26257.97737992 -.00003274  00000-0 -93820-4 0  9999
2 60367  53.1572 149.2973 0000894  81.8945 278.2158 15.31688547119628
Epoch: 2026-09-14T23:27Z
TLE epoch observation values (Epoch: 2026-09-14T23:27:25.625Z)
Latitude
0.00002°
Longitude
163.4906°
Altitude
471.587 km
Speed
7.632 km/s
True Right ascension
09h 57m 11s
True Declination
0° 00' 00"
Sunlit
Object was in daylight at epoch
Visualization orbit readout
Latitude
Unknown
Longitude
Unknown
Altitude
Unknown
Speed
Unknown
Apparent Right ascension
Unknown
Apparent Declination
Unknown
Sunlit
N/A
Visualization observer readout
Local Sidereal Time
08:41:03
Azimuth
Unknown
Elevation
Unknown
Doppler factor
Unknown
Orbital elements
Apogee altitude
471.643 km
Perigee altitude
470.419 km
Semi-major axis
6,849.168 km
Eccentricity
0.00009
Inclination
53.1572°
RAAN
149.2973°
Arg. of periapsis
81.8945°
True anomaly
278.20566°
Mean anomaly
278.2158°
Eccentric anomaly
278.21073°
Mean motion
3.82901 °/min
Orbital period
94.02 mins
BSTAR
-0.00009382
Loading maneuver chart data...
Computing Atmospheric mass density...
Loading historical data...
Loading historical data...
Loading historical data...
Loading historical data...
Loading historical data...
Loading historical data...
Loading historical data...

Documentation

Showing up to 5 results
|